Hourly Data Report for November 05, 2012

BAGOTVILLE A
QUEBEC

48°20'00.000" N
71°00'00.000" W
159.10 m
7060400
71727
YBG

Download Data

Hourly Data (November 2012)
Hourly Data Report for November 5, 2012
TIME
LST
Temp Definition
°C
Dew Point Definition
°C
Rel Hum Definition
%
Precip. Amount Definition
mm

Wind Dir Definition
10's deg

Wind Spd Definition
km/h
Visibility Definition
km
Stn Press Definition
kPa
Hmdx Definition


Wind Chill Definition


Weather Definition


00:00 -1.1 -9.0 55   31 20 24.1 99.52   -7 Snow
01:00 -1.4 -7.2 65   30 15 24.1 99.52   -6 Cloudy
02:00 -1.5 -7.7 63   30 15 24.1 99.53   -6 Snow
03:00 -1.5 -8.5 59   30 20 24.1 99.53   -7 Snow
04:00 -1.5 -8.5 59   31 20 24.1 99.56   -7 Cloudy
05:00 -1.6 -10.7 50   31 19 24.1 99.58   -7 Cloudy
06:00 -1.8 -8.6 60   32 17 24.1 99.59   -7 Cloudy
07:00 -2.7 -8.0 67   30 11 24.1 99.62   -7 Snow
08:00 -1.9 -6.6 70   33 22 40.2 99.66   -8 Cloudy
09:00 -1.6 -7.5 64   31 15 40.2 99.64   -6 Cloudy
10:00 -1.0 -5.4 72   32 17 40.2 99.62   -6 Cloudy
11:00 -1.1 -10.7 48   30 17 24.1 99.62   -6 Cloudy
12:00 -1.7 -8.4 60   35 11 32.2 99.62   -6 Snow Showers
13:00 -1.4 -6.2 70   29 17 24.1 99.62   -7 Cloudy
14:00 -2.0 -11.8 47   34 15 24.1 99.63   -7 Snow Showers
15:00 -1.7 -9.2 57   32 13 24.1 99.63   -6 Snow Showers
16:00 -2.0 -6.0 74   29 19 24.1 99.65   -8 Snow Showers
17:00 -3.2 -7.6 72   28 13 24.1 99.69   -8 Mostly Cloudy
18:00 -3.0 -7.4 72   26 13 24.1 99.73   -8 Mostly Cloudy
19:00 -3.8 -6.4 82   26 13 24.1 99.75   -9 Mostly Cloudy
20:00 -3.8 -6.7 80   27 15 24.1 99.75   -9 Mostly Cloudy
21:00 -3.5 -6.7 78   26 13 24.1 99.76   -8 Cloudy
22:00 -4.2 -7.2 80   26 15 24.1 99.74   -10 Mostly Cloudy
23:00 -3.9 -6.2 84   27 13 24.1 99.72   -9 Cloudy

Notes on Data Quality.

Legend

  • E = Estimated
  • M = Missing
  • NA = Not Available*
  • [empty] = Indicates an unobserved value
Date modified: